• In Uzbekistan
  • List of Countries
  • For 7 days
  • Water Temperature
  • Satellite Maps
  • Weather Map
  • Weather Widgets
  • user-avatar
    Login

    Hourly Weather Newcastle

    Today, 10 December, Monday

    Time Temperature Precipitation Wind Pressure Humidity
    00:00 +19°C° 0 mm 4 mps 761 mmHg 94%
    01:00 +19°C° 0 mm 3 mps 760 mmHg 96%
    02:00 +19°C° 0 mm 3 mps 760 mmHg 96%
    03:00 +18°C° 0 mm 3 mps 760 mmHg 97%
    04:00 +18°C° 0 mm 3 mps 759 mmHg 97%
    05:00 +20°C° 0 mm 3 mps 760 mmHg 90%
    06:00 +21°C° 0 mm 2 mps 760 mmHg 83%
    07:00 +24°C° 0 mm 2 mps 760 mmHg 76%
    08:00 +26°C° 0 mm 2 mps 760 mmHg 68%
    09:00 +29°C° 0 mm 2 mps 760 mmHg 59%
    10:00 +29°C° 0 mm 2 mps 760 mmHg 57%
    11:00 +31°C° 0 mm 2 mps 760 mmHg 50%
    12:00 +32°C° 0 mm 2 mps 760 mmHg 44%
    13:00 +35°C° 0 mm 2 mps 760 mmHg 37%
    14:00 +33°C° 0 mm 3 mps 760 mmHg 42%
    15:00 +31°C° 0 mm 3 mps 759 mmHg 47%
    16:00 +28°C° 0 mm 3 mps 759 mmHg 56%
    17:00 +27°C° 0.2 mm 2 mps 760 mmHg 65%
    18:00 +25°C° 0.2 mm 2 mps 760 mmHg 73%
    19:00 +23°C° 0.2 mm 2 mps 761 mmHg 82%
    20:00 +23°C° 0 mm 2 mps 761 mmHg 83%
    21:00 +23°C° 0 mm 2 mps 762 mmHg 85%
    22:00 +21°C° 0 mm 2 mps 762 mmHg 87%
    23:00 +21°C° 0 mm 2 mps 762 mmHg 89%

    Tomorrow, 11 December, Tuesday

    Time Temperature Precipitation Wind Pressure Humidity
    00:00 +21°C° 0 mm 3 mps 762 mmHg 91%
    01:00 +21°C° 0 mm 3 mps 762 mmHg 93%
    02:00 +21°C° 0 mm 3 mps 762 mmHg 94%
    03:00 +21°C° 0 mm 3 mps 762 mmHg 94%
    04:00 +20°C° 0 mm 4 mps 762 mmHg 95%
    05:00 +21°C° 0.1 mm 4 mps 762 mmHg 93%
    06:00 +21°C° 0.1 mm 4 mps 762 mmHg 91%
    07:00 +22°C° 0.1 mm 4 mps 762 mmHg 89%
    08:00 +22°C° 0.1 mm 4 mps 762 mmHg 88%
    09:00 +22°C° 0.1 mm 4 mps 762 mmHg 88%
    10:00 +22°C° 0.1 mm 3 mps 762 mmHg 88%
    11:00 +22°C° 0.2 mm 3 mps 762 mmHg 88%
    12:00 +22°C° 0.2 mm 3 mps 762 mmHg 89%
    13:00 +22°C° 0.2 mm 3 mps 762 mmHg 89%
    14:00 +22°C° 0.2 mm 3 mps 762 mmHg 89%
    15:00 +22°C° 0.2 mm 3 mps 762 mmHg 88%
    16:00 +23°C° 0.2 mm 2 mps 761 mmHg 87%
    17:00 +21°C° 0.1 mm 2 mps 761 mmHg 89%
    18:00 +21°C° 0.1 mm 2 mps 761 mmHg 91%
    19:00 +20°C° 0.1 mm 2 mps 761 mmHg 93%
    20:00 +20°C° 0 mm 2 mps 762 mmHg 94%
    21:00 +19°C° 0 mm 2 mps 762 mmHg 96%
    22:00 +19°C° 0 mm 2 mps 762 mmHg 97%
    23:00 +19°C° 0 mm 2 mps 761 mmHg 97%

    Day after tomorrow, 12 December, Wednesday

    Time Temperature Precipitation Wind Pressure Humidity
    00:00 +19°C° 0 mm 2 mps 761 mmHg 97%
    01:00 +19°C° 0 mm 2 mps 761 mmHg 97%
    02:00 +19°C° 0 mm 2 mps 760 mmHg 97%
    03:00 +19°C° 0 mm 2 mps 760 mmHg 97%
    04:00 +19°C° 0 mm 2 mps 760 mmHg 96%
    05:00 +20°C° 0.1 mm 2 mps 760 mmHg 95%
    06:00 +20°C° 0.1 mm 2 mps 760 mmHg 94%
    07:00 +21°C° 0.1 mm 2 mps 761 mmHg 93%
    08:00 +22°C° 0.1 mm 3 mps 760 mmHg 88%
    09:00 +24°C° 0.1 mm 3 mps 760 mmHg 84%
    10:00 +25°C° 0.1 mm 4 mps 760 mmHg 80%
    11:00 +25°C° 0 mm 4 mps 759 mmHg 75%
    12:00 +26°C° 0 mm 4 mps 759 mmHg 71%
    13:00 +27°C° 0 mm 4 mps 758 mmHg 67%
    14:00 +26°C° 0.1 mm 5 mps 758 mmHg 70%
    15:00 +25°C° 0.1 mm 5 mps 757 mmHg 74%
    16:00 +25°C° 0.1 mm 5 mps 757 mmHg 77%
    17:00 +23°C° 0.5 mm 5 mps 757 mmHg 84%
    18:00 +22°C° 0.5 mm 4 mps 757 mmHg 90%
    19:00 +21°C° 0.5 mm 4 mps 757 mmHg 96%
    20:00 +21°C° 0.1 mm 4 mps 757 mmHg 97%
    21:00 +21°C° 0.1 mm 4 mps 757 mmHg 97%
    22:00 +21°C° 0.1 mm 4 mps 756 mmHg 98%
    23:00 +21°C° 0 mm 4 mps 756 mmHg 98%

    13 December, Thursday

    Time Temperature Precipitation Wind Pressure Humidity
    00:00 +21°C° 0 mm 4 mps 755 mmHg 98%
    01:00 +20°C° 0 mm 4 mps 754 mmHg 98%
    02:00 +20°C° 0.1 mm 3 mps 754 mmHg 98%
    03:00 +20°C° 0.1 mm 3 mps 753 mmHg 98%
    04:00 +20°C° 0.1 mm 3 mps 753 mmHg 98%
    05:00 +21°C° 0 mm 3 mps 753 mmHg 96%
    06:00 +21°C° 0 mm 3 mps 753 mmHg 93%
    07:00 +22°C° 0 mm 3 mps 753 mmHg 91%
    08:00 +26°C° 0.4 mm 3 mps 753 mmHg 78%
    09:00 +29°C° 0.4 mm 3 mps 752 mmHg 66%
    10:00 +31°C° 0.4 mm 3 mps 752 mmHg 54%
    11:00 +33°C° 0.9 mm 3 mps 751 mmHg 54%
    12:00 +34°C° 0.9 mm 4 mps 751 mmHg 54%
    13:00 +34°C° 0.9 mm 4 mps 750 mmHg 55%
    14:00 +34°C° 1.3 mm 5 mps 749 mmHg 57%
    15:00 +33°C° 1.3 mm 5 mps 749 mmHg 58%
    16:00 +32°C° 1.3 mm 6 mps 748 mmHg 60%
    17:00 +30°C° 2.1 mm 6 mps 748 mmHg 67%
    18:00 +28°C° 2.1 mm 7 mps 748 mmHg 74%
    19:00 +27°C° 2.1 mm 7 mps 748 mmHg 81%
    20:00 +27°C° 0.3 mm 7 mps 748 mmHg 80%
    21:00 +26°C° 0.3 mm 6 mps 748 mmHg 80%
    22:00 +26°C° 0.3 mm 6 mps 749 mmHg 80%
    23:00 +26°C° 0 mm 6 mps 748 mmHg 81%

    14 December, Friday

    Time Temperature Precipitation Wind Pressure Humidity
    00:00 +25°C° 0 mm 5 mps 748 mmHg 83%
    01:00 +23°C° 0 mm 5 mps 747 mmHg 84%
    02:00 +23°C° 0.2 mm 5 mps 747 mmHg 86%
    03:00 +23°C° 0.2 mm 4 mps 747 mmHg 88%
    04:00 +22°C° 0.2 mm 3 mps 747 mmHg 90%
    05:00 +25°C° 0 mm 4 mps 747 mmHg 84%
    06:00 +26°C° 0 mm 4 mps 748 mmHg 78%
    07:00 +28°C° 0 mm 4 mps 748 mmHg 71%
    08:00 +28°C° 0 mm 4 mps 749 mmHg 67%
    09:00 +29°C° 0 mm 4 mps 749 mmHg 62%
    10:00 +30°C° 0 mm 4 mps 750 mmHg 58%
    11:00 +31°C° 0.9 mm 3 mps 750 mmHg 56%
    12:00 +31°C° 0.9 mm 3 mps 750 mmHg 54%
    13:00 +33°C° 0.9 mm 3 mps 750 mmHg 52%
    14:00 +31°C° 1.2 mm 3 mps 749 mmHg 61%
    15:00 +29°C° 1.2 mm 4 mps 749 mmHg 69%
    16:00 +28°C° 1.2 mm 4 mps 749 mmHg 77%
    17:00 +27°C° 0.7 mm 4 mps 750 mmHg 81%
    18:00 +26°C° 0.7 mm 5 mps 750 mmHg 86%
    19:00 +25°C° 0.7 mm 5 mps 751 mmHg 90%
    20:00 +23°C° 0.4 mm 5 mps 751 mmHg 92%
    21:00 +23°C° 0.4 mm 6 mps 751 mmHg 94%
    22:00 +23°C° 0.4 mm 6 mps 751 mmHg 95%
    23:00 +22°C° 0.7 mm 6 mps 751 mmHg 96%

    15 December, Saturday

    Time Temperature Precipitation Wind Pressure Humidity
    00:00 +22°C° 0.7 mm 6 mps 751 mmHg 96%
    01:00 +22°C° 0.7 mm 6 mps 751 mmHg 96%
    02:00 +22°C° 0.4 mm 6 mps 751 mmHg 96%
    03:00 +22°C° 0.4 mm 6 mps 751 mmHg 96%
    04:00 +22°C° 0.4 mm 5 mps 752 mmHg 96%
    05:00 +23°C° 0.4 mm 5 mps 752 mmHg 93%
    06:00 +24°C° 0.4 mm 6 mps 752 mmHg 90%
    07:00 +26°C° 0.4 mm 6 mps 753 mmHg 87%
    08:00 +27°C° 2.3 mm 6 mps 753 mmHg 84%
    09:00 +28°C° 2.3 mm 6 mps 753 mmHg 81%
    10:00 +29°C° 2.3 mm 7 mps 753 mmHg 78%
    11:00 +30°C° 3.8 mm 7 mps 752 mmHg 77%
    12:00 +30°C° 3.8 mm 7 mps 752 mmHg 76%
    13:00 +30°C° 3.8 mm 7 mps 751 mmHg 75%
    14:00 +30°C° 3.8 mm 7 mps 751 mmHg 77%
    15:00 +29°C° 3.8 mm 7 mps 751 mmHg 79%
    16:00 +29°C° 3.8 mm 7 mps 750 mmHg 81%
    17:00 +28°C° 0.8 mm 7 mps 751 mmHg 83%
    18:00 +27°C° 0.8 mm 7 mps 751 mmHg 85%
    19:00 +26°C° 0.8 mm 7 mps 752 mmHg 87%
    20:00 +26°C° 0.1 mm 7 mps 752 mmHg 89%
    21:00 +26°C° 0.1 mm 6 mps 752 mmHg 90%
    22:00 +24°C° 0.1 mm 6 mps 753 mmHg 92%
    23:00 +24°C° 0 mm 6 mps 753 mmHg 93%
    Show more